CFG5X EGKK-EDDF

Flight info

Callsign CFG5X
Flight time 1h 0m
Altitude 35000
Route DVR UL9 KONAN DCT KOK DCT SPI T180 NIVNU/N0394F230 T847 IMCOM IMCOM1A
Aircraft A20N/M-SDE2E3FGHIRWXY/LB1

Departure

Time 2026-05-04 11:53
Airport London Gatwick Airport (EGKK)

Arrival

Time 2026-05-04 12:53
Airport Frankfurt Main Airport (EDDF)
Time Latitude Longitude Altitude Speed Heading
2026-05-04 11:16 51.15198 -0.18871 195 ft 0 kts 258°
2026-05-04 11:37 51.15199 -0.18865 195 ft 2 kts 258°
2026-05-04 11:37 51.15202 -0.18842 195 ft 2 kts 258°
2026-05-04 11:37 51.15205 -0.18819 195 ft 2 kts 258°
2026-05-04 11:37 51.15208 -0.18802 195 ft 0 kts 258°
2026-05-04 11:38 51.15212 -0.18781 195 ft 2 kts 242°
2026-05-04 11:38 51.15219 -0.18761 195 ft 2 kts 228°
2026-05-04 11:38 51.15231 -0.18745 194 ft 2 kts 212°
2026-05-04 11:38 51.15244 -0.18735 194 ft 2 kts 197°
2026-05-04 11:39 51.15259 -0.18731 194 ft 2 kts 180°
2026-05-04 11:39 51.15270 -0.18732 194 ft 0 kts 169°
2026-05-04 11:40 51.15225 -0.18717 194 ft 0 kts 167°
2026-05-04 11:45 51.15214 -0.18713 195 ft 6 kts 168°
2026-05-04 11:45 51.15163 -0.18698 196 ft 7 kts 178°
2026-05-04 11:45 51.15122 -0.18769 196 ft 11 kts 257°
2026-05-04 11:46 51.15101 -0.18921 196 ft 16 kts 258°
2026-05-04 11:46 51.15074 -0.19121 194 ft 20 kts 258°
2026-05-04 11:46 51.15042 -0.19356 192 ft 22 kts 259°
2026-05-04 11:46 51.15010 -0.19596 192 ft 21 kts 257°
2026-05-04 11:47 51.14978 -0.19825 195 ft 20 kts 258°
2026-05-04 11:47 51.14946 -0.20041 196 ft 19 kts 256°
2026-05-04 11:47 51.14916 -0.20252 197 ft 18 kts 258°
2026-05-04 11:47 51.14890 -0.20458 197 ft 19 kts 258°
2026-05-04 11:48 51.14859 -0.20677 196 ft 20 kts 258°
2026-05-04 11:48 51.14829 -0.20902 197 ft 20 kts 259°
2026-05-04 11:48 51.14797 -0.21134 198 ft 22 kts 252°
2026-05-04 11:48 51.14759 -0.21327 200 ft 16 kts 258°
2026-05-04 11:49 51.14721 -0.21402 202 ft 0 kts 189°
2026-05-04 11:49 51.14684 -0.21388 202 ft 12 kts 150°
2026-05-04 11:49 51.14636 -0.21335 202 ft 0 kts 161°
2026-05-04 11:50 51.14635 -0.21335 202 ft 0 kts 161°
2026-05-04 11:50 51.14628 -0.21330 202 ft 3 kts 161°
2026-05-04 11:50 51.14594 -0.21313 202 ft 7 kts 161°
2026-05-04 11:51 51.14542 -0.21261 201 ft 11 kts 131°
2026-05-04 11:51 51.14526 -0.21122 199 ft 14 kts 79°
2026-05-04 11:51 51.14536 -0.21045 199 ft 0 kts 78°
2026-05-04 11:51 51.14537 -0.21040 199 ft 1 kts 77°
2026-05-04 11:52 51.14541 -0.21011 198 ft 4 kts 77°
2026-05-04 11:52 51.14551 -0.20938 197 ft 9 kts 77°
2026-05-04 11:52 51.14623 -0.20443 197 ft 85 kts 76°
2026-05-04 11:52 51.14797 -0.19168 214 ft 145 kts 78°
2026-05-04 11:53 51.15012 -0.17516 685 ft 158 kts 77°
2026-05-04 11:53 51.15212 -0.15837 1442 ft 157 kts 76°
2026-05-04 11:53 51.15446 -0.14176 2205 ft 156 kts 75°
2026-05-04 11:53 51.15703 -0.12449 2663 ft 171 kts 76°
2026-05-04 11:55 51.16749 0.05388 5972 ft 270 kts 92°
2026-05-04 11:55 51.16687 0.08372 5979 ft 270 kts 92°
2026-05-04 11:56 51.16626 0.11394 5979 ft 270 kts 92°
2026-05-04 11:56 51.16569 0.14376 5981 ft 269 kts 91°
2026-05-04 11:56 51.16536 0.17328 5980 ft 269 kts 90°
2026-05-04 11:56 51.16546 0.20332 5981 ft 270 kts 89°
2026-05-04 11:57 51.16561 0.23333 5980 ft 270 kts 90°
2026-05-04 11:57 51.16572 0.26314 6177 ft 278 kts 90°
2026-05-04 11:57 51.16581 0.29423 7109 ft 282 kts 90°
2026-05-04 11:57 51.16587 0.32485 8188 ft 281 kts 90°
2026-05-04 11:58 51.16591 0.35602 9130 ft 285 kts 90°
2026-05-04 11:58 51.16593 0.38746 10025 ft 290 kts 90°
2026-05-04 11:58 51.16592 0.41979 10908 ft 294 kts 90°
2026-05-04 11:58 51.16592 0.45217 11743 ft 299 kts 90°
2026-05-04 11:59 51.16592 0.48522 12578 ft 304 kts 90°
2026-05-04 11:59 51.16591 0.51918 13231 ft 315 kts 90°
2026-05-04 11:59 51.16589 0.55511 13664 ft 333 kts 90°
2026-05-04 11:59 51.16586 0.59294 14058 ft 351 kts 90°
2026-05-04 12:00 51.16582 0.63242 14592 ft 363 kts 90°
2026-05-04 12:00 51.16578 0.67239 15363 ft 367 kts 91°
2026-05-04 12:00 51.16571 0.71293 16162 ft 370 kts 91°
2026-05-04 12:00 51.16563 0.75411 16708 ft 373 kts 91°
2026-05-04 12:01 51.16554 0.79511 16962 ft 374 kts 91°
2026-05-04 12:01 51.16542 0.83658 16970 ft 374 kts 91°
2026-05-04 12:02 51.16437 1.08607 18619 ft 383 kts 91°
2026-05-04 12:03 51.16416 1.12845 19316 ft 386 kts 92°
2026-05-04 12:03 51.16392 1.17138 19927 ft 392 kts 92°
2026-05-04 12:03 51.16365 1.21484 20520 ft 398 kts 92°
2026-05-04 12:03 51.16335 1.25910 21109 ft 403 kts 92°
2026-05-04 12:04 51.16303 1.30383 21694 ft 408 kts 92°
2026-05-04 12:04 51.16263 1.34884 22218 ft 413 kts 94°
2026-05-04 12:04 51.16106 1.39463 22641 ft 421 kts 96°
2026-05-04 12:04 51.15886 1.44174 23159 ft 426 kts 97°
2026-05-04 12:05 51.15660 1.48829 23721 ft 429 kts 97°
2026-05-04 12:05 51.15426 1.53601 24270 ft 433 kts 97°
2026-05-04 12:05 51.15188 1.58415 24802 ft 436 kts 97°
2026-05-04 12:05 51.14954 1.63171 25542 ft 430 kts 97°
2026-05-04 12:06 51.14742 1.67648 27091 ft 389 kts 99°
2026-05-04 12:06 51.14522 1.72031 26852 ft 412 kts 99°
2026-05-04 12:06 51.14274 1.76734 26891 ft 427 kts 99°
2026-05-04 12:06 51.14031 1.81429 27091 ft 437 kts 98°
2026-05-04 12:07 51.13779 1.86331 27286 ft 446 kts 98°
2026-05-04 12:07 51.13527 1.91231 27585 ft 452 kts 98°
2026-05-04 12:07 51.13270 1.96236 28033 ft 454 kts 98°
2026-05-04 12:07 51.13009 2.01265 28511 ft 455 kts 98°
2026-05-04 12:08 51.12747 2.06246 28926 ft 457 kts 98°
2026-05-04 12:08 51.12480 2.11278 29369 ft 458 kts 99°
2026-05-04 12:08 51.12235 2.15861 29885 ft 457 kts 99°
2026-05-04 12:08 51.12060 2.19107 30256 ft 455 kts 99°
2026-05-04 12:09 51.11787 2.24142 30793 ft 454 kts 99°
2026-05-04 12:09 51.11516 2.29088 31263 ft 453 kts 99°
2026-05-04 12:09 51.11240 2.34056 31710 ft 452 kts 99°
2026-05-04 12:09 51.10963 2.39014 32128 ft 451 kts 99°
2026-05-04 12:10 51.10686 2.43967 32531 ft 451 kts 99°
2026-05-04 12:10 51.10405 2.48930 32927 ft 450 kts 99°
2026-05-04 12:10 51.10124 2.53830 33303 ft 450 kts 99°
2026-05-04 12:10 51.09835 2.58732 33627 ft 450 kts 100°
2026-05-04 12:11 51.09409 2.63655 33889 ft 450 kts 104°
2026-05-04 12:11 51.08801 2.68524 34106 ft 450 kts 108°
2026-05-04 12:11 51.08003 2.73368 34311 ft 451 kts 111°
2026-05-04 12:11 51.07132 2.78164 34530 ft 452 kts 111°
2026-05-04 12:12 51.06263 2.82913 34739 ft 454 kts 111°
2026-05-04 12:12 51.05384 2.87699 34906 ft 455 kts 111°
2026-05-04 12:12 51.03606 2.97379 34950 ft 457 kts 111°
2026-05-04 12:14 50.96475 3.35865 34939 ft 456 kts 111°
2026-05-04 12:15 50.94681 3.45420 34934 ft 456 kts 111°
2026-05-04 12:15 50.92871 3.55016 34933 ft 456 kts 111°
2026-05-04 12:16 50.91053 3.64603 34934 ft 456 kts 111°
2026-05-04 12:16 50.89226 3.74201 34935 ft 456 kts 112°
2026-05-04 12:17 50.87388 3.83804 34934 ft 456 kts 112°
2026-05-04 12:17 50.85561 3.93294 34935 ft 455 kts 112°
2026-05-04 12:18 50.83703 4.02894 34940 ft 455 kts 112°
2026-05-04 12:18 50.81861 4.12373 34943 ft 455 kts 112°
2026-05-04 12:19 50.79998 4.21907 34946 ft 455 kts 112°
2026-05-04 12:19 50.78123 4.31452 34954 ft 455 kts 112°
2026-05-04 12:20 50.76246 4.40958 34954 ft 455 kts 112°
2026-05-04 12:20 50.74336 4.50582 34964 ft 464 kts 113°
2026-05-04 12:21 50.72390 4.60325 34957 ft 472 kts 112°
2026-05-04 12:21 50.70427 4.70142 34959 ft 472 kts 113°
2026-05-04 12:22 50.68453 4.79963 34956 ft 472 kts 114°
2026-05-04 12:22 50.66469 4.89771 34953 ft 471 kts 114°
2026-05-04 12:23 50.64464 4.99634 34950 ft 472 kts 113°
2026-05-04 12:23 50.62470 5.09382 34949 ft 472 kts 114°
2026-05-04 12:24 50.60450 5.19217 34950 ft 472 kts 114°
2026-05-04 12:24 50.58433 5.28979 34954 ft 473 kts 114°
2026-05-04 12:25 50.56393 5.38813 34956 ft 474 kts 114°
2026-05-04 12:25 50.54347 5.48635 34959 ft 474 kts 114°
2026-05-04 12:26 50.52284 5.58479 34961 ft 476 kts 114°
2026-05-04 12:26 50.50334 5.68408 34959 ft 478 kts 112°
2026-05-04 12:27 50.48469 5.78420 34758 ft 477 kts 112°
2026-05-04 12:27 50.47554 5.83327 34486 ft 465 kts 112°
2026-05-04 12:27 50.46653 5.88149 34212 ft 454 kts 112°
2026-05-04 12:28 50.45775 5.92815 33945 ft 449 kts 112°
2026-05-04 12:28 50.44886 5.97508 33670 ft 446 kts 112°
2026-05-04 12:28 50.44004 6.02150 33342 ft 447 kts 112°
2026-05-04 12:28 50.43112 6.06829 32599 ft 451 kts 112°
2026-05-04 12:29 50.42218 6.11519 31783 ft 453 kts 112°
2026-05-04 12:29 50.41324 6.16194 30977 ft 454 kts 112°
2026-05-04 12:29 50.40421 6.20922 30153 ft 454 kts 112°
2026-05-04 12:29 50.39514 6.25649 29326 ft 454 kts 111°
2026-05-04 12:30 50.38602 6.30382 28498 ft 454 kts 111°
2026-05-04 12:30 50.37694 6.35091 27678 ft 454 kts 111°
2026-05-04 12:30 50.36897 6.39804 26873 ft 455 kts 107°
2026-05-04 12:30 50.36291 6.44658 26057 ft 456 kts 103°
2026-05-04 12:31 50.35866 6.49618 25244 ft 457 kts 99°
2026-05-04 12:31 50.35566 6.54562 24435 ft 456 kts 98°
2026-05-04 12:31 50.35285 6.59440 23645 ft 454 kts 98°
2026-05-04 12:31 50.34989 6.64377 22862 ft 452 kts 98°
2026-05-04 12:32 50.34685 6.69197 22095 ft 450 kts 99°
2026-05-04 12:32 50.34079 6.78708 21241 ft 429 kts 99°
2026-05-04 12:32 50.33708 6.83247 21002 ft 412 kts 104°
2026-05-04 12:33 50.33022 6.87544 20957 ft 405 kts 111°
2026-05-04 12:33 50.32159 6.91694 20695 ft 405 kts 107°
2026-05-04 12:33 50.31830 6.96099 20420 ft 408 kts 95°
2026-05-04 12:33 50.31815 7.00469 20189 ft 407 kts 93°
2026-05-04 12:34 50.31814 7.04868 19920 ft 405 kts 94°
2026-05-04 12:34 50.31768 7.09295 19659 ft 403 kts 94°
2026-05-04 12:34 50.31683 7.13631 19379 ft 400 kts 95°
2026-05-04 12:34 50.31570 7.17936 18922 ft 396 kts 95°
2026-05-04 12:35 50.31440 7.22175 18564 ft 394 kts 96°
2026-05-04 12:35 50.31296 7.26479 18294 ft 394 kts 96°
2026-05-04 12:35 50.31147 7.30714 18021 ft 393 kts 96°
2026-05-04 12:35 50.30995 7.34972 17756 ft 391 kts 96°
2026-05-04 12:36 50.30841 7.39165 17489 ft 390 kts 96°
2026-05-04 12:36 50.30684 7.43414 17221 ft 388 kts 96°
2026-05-04 12:36 50.30526 7.47590 16952 ft 386 kts 96°
2026-05-04 12:36 50.30367 7.51768 16695 ft 384 kts 96°
2026-05-04 12:37 50.30207 7.55919 16440 ft 383 kts 96°
2026-05-04 12:37 50.30047 7.60015 16193 ft 382 kts 96°
2026-05-04 12:37 50.29884 7.64137 15990 ft 381 kts 96°
2026-05-04 12:37 50.29719 7.68293 15786 ft 379 kts 96°
2026-05-04 12:38 50.29554 7.72387 15578 ft 378 kts 96°
2026-05-04 12:38 50.29391 7.76429 15376 ft 377 kts 96°
2026-05-04 12:38 50.29225 7.80499 15171 ft 376 kts 96°
2026-05-04 12:38 50.29057 7.84585 14968 ft 375 kts 96°
2026-05-04 12:39 50.28888 7.88646 14742 ft 374 kts 96°
2026-05-04 12:39 50.28720 7.92661 14496 ft 371 kts 96°
2026-05-04 12:39 50.28551 7.96662 14248 ft 370 kts 96°
2026-05-04 12:39 50.28382 8.00644 13986 ft 368 kts 96°
2026-05-04 12:40 50.28210 8.04653 13730 ft 367 kts 96°
2026-05-04 12:40 50.28038 8.08620 13470 ft 366 kts 96°
2026-05-04 12:40 50.27867 8.12547 13198 ft 365 kts 96°
2026-05-04 12:40 50.27693 8.16490 12951 ft 362 kts 96°
2026-05-04 12:41 50.27519 8.20407 12688 ft 362 kts 96°
2026-05-04 12:41 50.27346 8.24269 12439 ft 360 kts 96°
2026-05-04 12:41 50.27171 8.28151 12192 ft 359 kts 96°
2026-05-04 12:41 50.26994 8.32063 11959 ft 358 kts 96°
2026-05-04 12:42 50.26818 8.35918 11713 ft 356 kts 96°
2026-05-04 12:42 50.26640 8.39776 11491 ft 354 kts 96°
2026-05-04 12:42 50.26466 8.43553 11099 ft 350 kts 95°
2026-05-04 12:42 50.26289 8.47351 10535 ft 349 kts 95°
2026-05-04 12:43 50.26114 8.51085 10255 ft 339 kts 95°
2026-05-04 12:43 50.25946 8.54655 10058 ft 328 kts 95°
2026-05-04 12:43 50.25780 8.58173 9823 ft 318 kts 95°
2026-05-04 12:43 50.25618 8.61543 9679 ft 305 kts 95°
2026-05-04 12:44 50.25463 8.64775 9548 ft 294 kts 95°
2026-05-04 12:44 50.25311 8.67900 9412 ft 291 kts 96°
2026-05-04 12:44 50.25158 8.71040 9216 ft 283 kts 96°
2026-05-04 12:44 50.25012 8.74019 9076 ft 272 kts 96°
2026-05-04 12:45 50.24865 8.76916 8945 ft 266 kts 96°
2026-05-04 12:45 50.24712 8.79824 8816 ft 266 kts 97°
2026-05-04 12:45 50.24294 8.82531 8671 ft 256 kts 121°
2026-05-04 12:45 50.23169 8.84600 8557 ft 247 kts 142°
2026-05-04 12:46 50.21828 8.86246 8399 ft 244 kts 145°
2026-05-04 12:46 50.20477 8.87809 8070 ft 244 kts 145°
2026-05-04 12:46 50.19109 8.89377 7733 ft 244 kts 145°
2026-05-04 12:46 50.17744 8.90937 7418 ft 243 kts 145°
2026-05-04 12:47 50.16396 8.92478 7105 ft 242 kts 145°
2026-05-04 12:47 50.14978 8.93850 6770 ft 240 kts 162°
2026-05-04 12:47 50.13335 8.94062 6419 ft 237 kts 194°
2026-05-04 12:47 50.11889 8.92928 6088 ft 235 kts 223°
2026-05-04 12:48 50.11009 8.90832 5754 ft 235 kts 254°
2026-05-04 12:48 50.10701 8.88388 5304 ft 233 kts 259°
2026-05-04 12:48 50.10360 8.85926 4758 ft 233 kts 254°
2026-05-04 12:48 50.09913 8.83521 4237 ft 231 kts 252°
2026-05-04 12:49 50.09415 8.81191 3858 ft 223 kts 250°
2026-05-04 12:49 50.08897 8.78974 3607 ft 209 kts 249°
2026-05-04 12:49 50.08409 8.76955 3245 ft 194 kts 248°
2026-05-04 12:49 50.07953 8.75077 2941 ft 180 kts 248°
2026-05-04 12:50 50.07522 8.73298 2643 ft 168 kts 249°
2026-05-04 12:50 50.07135 8.71676 2330 ft 159 kts 250°
2026-05-04 12:50 50.06772 8.70088 1922 ft 153 kts 249°
2026-05-04 12:50 50.06384 8.68518 1707 ft 158 kts 248°
2026-05-04 12:51 50.06004 8.66999 1472 ft 143 kts 248°
2026-05-04 12:51 50.05670 8.65624 1270 ft 133 kts 248°
2026-05-04 12:51 50.05347 8.64270 1115 ft 133 kts 249°
2026-05-04 12:51 50.05023 8.62915 953 ft 133 kts 248°
2026-05-04 12:52 50.04702 8.61573 790 ft 133 kts 250°
2026-05-04 12:52 50.04383 8.60239 617 ft 133 kts 249°
2026-05-04 12:52 50.04061 8.58893 450 ft 133 kts 247°
2026-05-04 12:52 50.03745 8.57579 357 ft 121 kts 250°
2026-05-04 12:53 50.03511 8.56599 345 ft 71 kts 248°
2026-05-04 12:53 50.03395 8.56103 341 ft 38 kts 249°
2026-05-04 12:53 50.03334 8.55842 341 ft 21 kts 252°
2026-05-04 12:53 50.03310 8.55602 338 ft 22 kts 270°
2026-05-04 12:54 50.03329 8.55365 338 ft 22 kts 279°
2026-05-04 12:54 50.03352 8.55133 338 ft 21 kts 278°
2026-05-04 12:54 50.03357 8.54910 338 ft 20 kts 255°
2026-05-04 12:54 50.03306 8.54701 337 ft 20 kts 248°
2026-05-04 12:55 50.03283 8.54511 335 ft 16 kts 304°
2026-05-04 12:55 50.03328 8.54474 335 ft 0 kts 338°
2026-05-04 12:55 50.03328 8.54473 335 ft 0 kts 335°
2026-05-04 12:56 50.03332 8.54470 335 ft 0 kts 338°
2026-05-04 12:58 50.03376 8.54443 336 ft 19 kts 339°
2026-05-04 12:58 50.03537 8.54348 339 ft 29 kts 340°
2026-05-04 12:58 50.03671 8.54365 342 ft 20 kts 63°
2026-05-04 12:59 50.03719 8.54566 342 ft 19 kts 70°
2026-05-04 12:59 50.03766 8.54763 345 ft 21 kts 69°
2026-05-04 12:59 50.03825 8.55005 348 ft 24 kts 71°
2026-05-04 12:59 50.03879 8.55240 352 ft 21 kts 69°
2026-05-04 13:00 50.03942 8.55444 353 ft 20 kts 34°
2026-05-04 13:00 50.04068 8.55413 357 ft 17 kts 344°
2026-05-04 13:00 50.04127 8.55473 359 ft 7 kts 87°
2026-05-04 13:00 50.04100 8.55512 358 ft 5 kts 149°
2026-05-04 13:01 50.04058 8.55537 357 ft 5 kts 161°
2026-05-04 13:01 50.04049 8.55542 356 ft 0 kts 160°